Whitehorse International Airport
CYXY : now visible

Airfield :











YOU CAN JOIN US ON...

 
LOGIN :

Register | Disclaimer

   EN    FR    IT 

 









Legend :    VFR   Marginal VFR   IFR   Intensive IFR   Very Intensive IFR
Visi :
Ceiling :
>= 8 km
>= 3000ft
5 to 8 km
1000 to 3000 ft
1500m to 5 km
500 to 1000 ft
800 to 1500m
200 to 500 ft
< 800m
< 200 ft
Symbols :   Thunderstorms  Fog  Heavy snow  Heavy precipitations  Wind > 20 kt






- Airport Elevation : 2317 ft
- IATA code : YXY


CYXY - Whitehorse International

CURRENT METAR :
  • 170700Z 16006KT 15SM OVC130 06/01 A2952 RMK AC8 SLP021

EXPIRED METARs :
  • 170600Z 16006KT 15SM FEW060 OVC130 06/01 A2953 RMK SC2AC6 SLP026
  • 170500Z 15010G17KT 15SM FEW040 BKN130 BKN240 07/01 A2954 RMK SC2AC4CI1 SLP029 DENSITY ALT 2400FT

TAF TAF CYXY
Valid from the 17 at 06:00 until the 18 at 06:00 UTC


170540Z 1706/1806 15010G20KT P6SM SCT040 BKN120
FM171800 15007KT P6SM BKN030 OVC100 RMK NXT FCST BY 171200Z
CZEG FIR / North America



MET'MAP, your aeronautical weather chart ! - Copyright ORBIFLY December 2007 - Disclaimer

ORBIFLY MET'MAP TEAM :

Programming & Development : Alexandra Zaïnal
Concept & original design : Baudouin d'Aumeries
Assistance for programming : Marc-Olivier Méhu
Technical & hardware support : Manuel Goepfert

Contact : metmap@orbifly.com




SOURCES & CREDITS :

   NOAA       Earth
Advisory